EN

Hourly Weather Czyzewo

Today, 4 August, Wednesday

Time Temperature Precipitation Wind Pressure Humidity
00:00 +17°C° 0 mm 2 mps 752 mmHg 66%
01:00 +17°C° 0 mm 2 mps 752 mmHg 67%
02:00 +16°C° 0.4 mm 1 mps 752 mmHg 73%
03:00 +16°C° 0.4 mm 1 mps 752 mmHg 78%
04:00 +15°C° 0.4 mm 1 mps 752 mmHg 84%
05:00 +15°C° 0.9 mm 1 mps 752 mmHg 86%
06:00 +15°C° 0.9 mm 1 mps 752 mmHg 88%
07:00 +15°C° 0 mm 1 mps 752 mmHg 89%
08:00 +16°C° 0.2 mm 1 mps 752 mmHg 87%
09:00 +16°C° 0.2 mm 2 mps 753 mmHg 85%
10:00 +17°C° 0.2 mm 2 mps 753 mmHg 83%
11:00 +18°C° 0.1 mm 2 mps 753 mmHg 77%
12:00 +18°C° 0.1 mm 2 mps 753 mmHg 72%
13:00 +19°C° 0.1 mm 3 mps 752 mmHg 67%
14:00 +20°C° 0.1 mm 3 mps 752 mmHg 62%
15:00 +21°C° 0.1 mm 3 mps 752 mmHg 58%
16:00 +22°C° 0.1 mm 3 mps 752 mmHg 53%
17:00 +21°C° 0 mm 2 mps 752 mmHg 57%
18:00 +20°C° 0 mm 2 mps 752 mmHg 61%
19:00 +19°C° 0 mm 2 mps 752 mmHg 64%
20:00 +18°C° 0 mm 2 mps 752 mmHg 67%
21:00 +16°C° 0 mm 2 mps 752 mmHg 70%
22:00 +15°C° 0 mm 2 mps 752 mmHg 74%
23:00 +15°C° 0 mm 2 mps 752 mmHg 76%

Tomorrow, 5 August, Thursday

Time Temperature Precipitation Wind Pressure Humidity
00:00 +14°C° 0 mm 2 mps 752 mmHg 79%
01:00 +14°C° 0 mm 2 mps 752 mmHg 82%
02:00 +13°C° 0 mm 2 mps 752 mmHg 83%
03:00 +13°C° 0 mm 2 mps 752 mmHg 85%
04:00 +13°C° 0 mm 2 mps 751 mmHg 86%
05:00 +13°C° 0 mm 3 mps 751 mmHg 81%
06:00 +14°C° 0 mm 3 mps 751 mmHg 76%
07:00 +17°C° 0 mm 3 mps 751 mmHg 71%
08:00 +19°C° 0 mm 3 mps 751 mmHg 66%
09:00 +20°C° 0 mm 3 mps 751 mmHg 60%
10:00 +22°C° 0 mm 3 mps 751 mmHg 55%
11:00 +24°C° 0 mm 3 mps 750 mmHg 51%
12:00 +25°C° 0 mm 3 mps 750 mmHg 47%
13:00 +25°C° 0 mm 3 mps 749 mmHg 42%
14:00 +25°C° 0 mm 3 mps 749 mmHg 45%
15:00 +24°C° 0 mm 3 mps 749 mmHg 48%
16:00 +24°C° 0 mm 2 mps 749 mmHg 51%
17:00 +23°C° 0 mm 2 mps 749 mmHg 55%
18:00 +21°C° 0 mm 2 mps 749 mmHg 58%
19:00 +21°C° 0 mm 1 mps 749 mmHg 62%
20:00 +20°C° 0 mm 1 mps 749 mmHg 64%
21:00 +20°C° 0 mm 1 mps 749 mmHg 66%
22:00 +18°C° 0 mm 2 mps 748 mmHg 68%
23:00 +18°C° 0 mm 2 mps 748 mmHg 69%

Day after tomorrow, 6 August, Friday

Time Temperature Precipitation Wind Pressure Humidity
00:00 +17°C° 0 mm 2 mps 748 mmHg 69%
01:00 +17°C° 0 mm 2 mps 748 mmHg 70%
02:00 +17°C° 0 mm 2 mps 748 mmHg 70%
03:00 +17°C° 0 mm 2 mps 748 mmHg 70%
04:00 +17°C° 0 mm 2 mps 748 mmHg 70%
05:00 +18°C° 0 mm 2 mps 748 mmHg 69%
06:00 +18°C° 0 mm 2 mps 748 mmHg 67%
07:00 +19°C° 0 mm 3 mps 748 mmHg 66%
08:00 +20°C° 0 mm 2 mps 748 mmHg 59%
09:00 +23°C° 0 mm 2 mps 748 mmHg 52%
10:00 +25°C° 0 mm 2 mps 748 mmHg 46%
11:00 +24°C° 0 mm 2 mps 748 mmHg 44%
12:00 +24°C° 0 mm 2 mps 748 mmHg 43%
13:00 +24°C° 0 mm 2 mps 748 mmHg 42%
14:00 +25°C° 0 mm 2 mps 748 mmHg 41%
15:00 +25°C° 0 mm 2 mps 748 mmHg 40%
16:00 +25°C° 0 mm 1 mps 747 mmHg 38%
17:00 +24°C° 0 mm 1 mps 747 mmHg 43%
18:00 +23°C° 0 mm 1 mps 747 mmHg 47%
19:00 +22°C° 0 mm 1 mps 747 mmHg 52%
20:00 +21°C° 0 mm 1 mps 748 mmHg 53%
21:00 +20°C° 0 mm 2 mps 748 mmHg 54%
22:00 +19°C° 0 mm 2 mps 748 mmHg 56%
23:00 +18°C° 0 mm 2 mps 748 mmHg 59%

7 August, Saturday

Time Temperature Precipitation Wind Pressure Humidity
00:00 +17°C° 0 mm 2 mps 748 mmHg 62%
01:00 +16°C° 0 mm 2 mps 748 mmHg 65%
02:00 +16°C° 0 mm 2 mps 748 mmHg 71%
03:00 +15°C° 0 mm 2 mps 748 mmHg 76%
04:00 +15°C° 0 mm 2 mps 748 mmHg 82%
05:00 +16°C° 0 mm 2 mps 748 mmHg 79%
06:00 +18°C° 0 mm 2 mps 748 mmHg 77%
07:00 +19°C° 0 mm 2 mps 749 mmHg 74%
08:00 +21°C° 0 mm 2 mps 749 mmHg 67%
09:00 +24°C° 0 mm 2 mps 749 mmHg 60%
10:00 +25°C° 0 mm 3 mps 749 mmHg 53%
11:00 +26°C° 0.1 mm 3 mps 748 mmHg 50%
12:00 +27°C° 0.1 mm 3 mps 748 mmHg 47%
13:00 +27°C° 0.1 mm 3 mps 748 mmHg 43%
14:00 +28°C° 0 mm 3 mps 748 mmHg 42%
15:00 +28°C° 0 mm 3 mps 748 mmHg 40%
16:00 +28°C° 0 mm 3 mps 747 mmHg 38%
17:00 +27°C° 0 mm 2 mps 747 mmHg 43%
18:00 +25°C° 0 mm 2 mps 748 mmHg 48%
19:00 +24°C° 0 mm 1 mps 748 mmHg 53%
20:00 +23°C° 0 mm 1 mps 748 mmHg 55%
21:00 +22°C° 0 mm 1 mps 748 mmHg 57%
22:00 +21°C° 0 mm 1 mps 748 mmHg 59%
23:00 +21°C° 0 mm 1 mps 748 mmHg 60%

8 August, Sunday

Time Temperature Precipitation Wind Pressure Humidity
00:00 +21°C° 0 mm 1 mps 747 mmHg 61%
01:00 +19°C° 0 mm 2 mps 747 mmHg 62%
02:00 +19°C° 0 mm 2 mps 747 mmHg 65%
03:00 +19°C° 0 mm 3 mps 747 mmHg 69%
04:00 +19°C° 0 mm 4 mps 747 mmHg 73%
05:00 +18°C° 0.4 mm 3 mps 748 mmHg 78%
06:00 +18°C° 0.4 mm 3 mps 748 mmHg 84%
07:00 +17°C° 0.4 mm 3 mps 748 mmHg 90%
08:00 +18°C° 0.8 mm 3 mps 749 mmHg 90%
09:00 +18°C° 0.8 mm 3 mps 749 mmHg 90%
10:00 +18°C° 0.8 mm 3 mps 750 mmHg 90%
11:00 +20°C° 0 mm 3 mps 750 mmHg 78%
12:00 +22°C° 0 mm 4 mps 750 mmHg 65%
13:00 +25°C° 0 mm 4 mps 750 mmHg 53%
14:00 +23°C° 0 mm 4 mps 751 mmHg 53%
15:00 +23°C° 0 mm 4 mps 751 mmHg 52%
16:00 +23°C° 0 mm 4 mps 751 mmHg 52%
17:00 +22°C° 0.1 mm 4 mps 752 mmHg 56%
18:00 +21°C° 0.1 mm 3 mps 752 mmHg 60%
19:00 +20°C° 0.1 mm 3 mps 752 mmHg 64%
20:00 +19°C° 0.2 mm 3 mps 753 mmHg 68%
21:00 +18°C° 0.2 mm 3 mps 753 mmHg 73%
22:00 +17°C° 0.2 mm 2 mps 754 mmHg 77%
23:00 +17°C° 0 mm 2 mps 754 mmHg 80%

9 August, Monday

Time Temperature Precipitation Wind Pressure Humidity
00:00 +16°C° 0 mm 3 mps 754 mmHg 83%
01:00 +14°C° 0 mm 3 mps 755 mmHg 85%
02:00 +14°C° 0 mm 3 mps 755 mmHg 88%
03:00 +14°C° 0 mm 2 mps 755 mmHg 90%
04:00 +14°C° 0 mm 2 mps 755 mmHg 93%
05:00 +14°C° 0 mm 3 mps 755 mmHg 88%
06:00 +16°C° 0 mm 3 mps 756 mmHg 83%
07:00 +17°C° 0 mm 3 mps 756 mmHg 78%
08:00 +19°C° 0 mm 3 mps 756 mmHg 69%
09:00 +20°C° 0 mm 3 mps 756 mmHg 60%
10:00 +22°C° 0 mm 3 mps 756 mmHg 51%
11:00 +23°C° 0 mm 4 mps 756 mmHg 47%
12:00 +25°C° 0 mm 4 mps 756 mmHg 43%
13:00 +26°C° 0 mm 4 mps 756 mmHg 39%
14:00 +25°C° 0 mm 4 mps 756 mmHg 40%
15:00 +25°C° 0 mm 4 mps 756 mmHg 41%
16:00 +25°C° 0 mm 4 mps 756 mmHg 42%
17:00 +22°C° 0.1 mm 4 mps 756 mmHg 53%
18:00 +20°C° 0.1 mm 3 mps 756 mmHg 64%
19:00 +18°C° 0.1 mm 3 mps 757 mmHg 76%
20:00 +17°C° 0.1 mm 3 mps 757 mmHg 75%
21:00 +17°C° 0.1 mm 2 mps 757 mmHg 75%
22:00 +17°C° 0.1 mm 2 mps 756 mmHg 75%
23:00 +17°C° 0 mm 2 mps 756 mmHg 77%
Show more

We Need Your Consent

Meteoprog and our Service Providers may store and access personal data such as cookies, device identifiers or other similar technologies on your device and process such data to personalise content and ads, as well as provide social media features and to analyse the traffic.

  • Store and/or access information on your device

    Cookies, device identifiers or other information can be stored or accessed on your device for the purposes indicated above.

  • Personalised ads and content, ad and content measurement, audience insights, and products development

    Ads and content can be personalised based on a profile. More data can be added to better personalise ads and content. Ad and content performance can be measured. Insights about the audience who saw the ads and content can be derived. Such data can be used to develop or improve user’s experience, systems and software.

By clicking ‘I Agree’ you will allow the use of indicated cookies, device identifiers, web beacons or other similar technologies. Your settings can be changed in the browser on your device.

For certain purposes, legitimate interests may be relied on, rather than consent. You can read more about this in our Privacy and Cookie Policy.